• Em Portugal
  • Lista de países
  • Para 7 dias
  • Temperatura da água
  • Mapas de satélite
  • Mapa do tempo
  • Widgets de tempo
  • user-avatar
    Iniciar Sessão

    Previsão horária em Tsumeb

    Hoje, 24 Fevereiro, Sábado

    Tempo Temperatura Precipitação Vento Pressão Humidade
    00:00 +25°C° 0 mm 3 m/s 650 mmHg 44%
    01:00 +24°C° 0 mm 3 m/s 650 mmHg 48%
    02:00 +24°C° 0 mm 3 m/s 650 mmHg 51%
    03:00 +24°C° 0 mm 3 m/s 649 mmHg 54%
    04:00 +22°C° 0 mm 3 m/s 649 mmHg 57%
    05:00 +24°C° 0 mm 2 m/s 650 mmHg 56%
    06:00 +24°C° 0 mm 2 m/s 650 mmHg 55%
    07:00 +25°C° 0 mm 2 m/s 651 mmHg 55%
    08:00 +26°C° 0 mm 2 m/s 651 mmHg 50%
    09:00 +28°C° 0 mm 2 m/s 652 mmHg 45%
    10:00 +30°C° 0 mm 1 m/s 652 mmHg 40%
    11:00 +31°C° 0 mm 2 m/s 652 mmHg 36%
    12:00 +34°C° 0 mm 2 m/s 652 mmHg 32%
    13:00 +35°C° 0 mm 2 m/s 652 mmHg 27%
    14:00 +34°C° 0 mm 3 m/s 651 mmHg 29%
    15:00 +33°C° 0 mm 3 m/s 650 mmHg 31%
    16:00 +33°C° 0 mm 3 m/s 650 mmHg 33%
    17:00 +30°C° 0,2 mm 3 m/s 650 mmHg 39%
    18:00 +28°C° 0,2 mm 3 m/s 650 mmHg 45%
    19:00 +26°C° 0,2 mm 3 m/s 650 mmHg 51%
    20:00 +26°C° 0,1 mm 3 m/s 650 mmHg 49%
    21:00 +26°C° 0,1 mm 3 m/s 651 mmHg 47%
    22:00 +26°C° 0,1 mm 2 m/s 651 mmHg 46%
    23:00 +25°C° 0 mm 3 m/s 651 mmHg 44%

    Amanhã, 25 Fevereiro, Domingo

    Tempo Temperatura Precipitação Vento Pressão Humidade
    00:00 +25°C° 0 mm 3 m/s 651 mmHg 42%
    01:00 +24°C° 0 mm 3 m/s 651 mmHg 40%
    02:00 +24°C° 0 mm 3 m/s 651 mmHg 40%
    03:00 +22°C° 0 mm 3 m/s 651 mmHg 39%
    04:00 +21°C° 0 mm 4 m/s 650 mmHg 38%
    05:00 +22°C° 0 mm 4 m/s 651 mmHg 36%
    06:00 +22°C° 0 mm 4 m/s 651 mmHg 35%
    07:00 +23°C° 0 mm 5 m/s 652 mmHg 33%
    08:00 +27°C° 0 mm 5 m/s 653 mmHg 30%
    09:00 +29°C° 0 mm 5 m/s 653 mmHg 27%
    10:00 +33°C° 0 mm 5 m/s 654 mmHg 24%
    11:00 +34°C° 0 mm 4 m/s 653 mmHg 24%
    12:00 +35°C° 0 mm 4 m/s 653 mmHg 24%
    13:00 +36°C° 0 mm 3 m/s 652 mmHg 24%
    14:00 +35°C° 0 mm 2 m/s 652 mmHg 26%
    15:00 +35°C° 0 mm 2 m/s 651 mmHg 28%
    16:00 +33°C° 0 mm 1 m/s 651 mmHg 30%
    17:00 +31°C° 0,2 mm 2 m/s 650 mmHg 34%
    18:00 +30°C° 0,2 mm 3 m/s 650 mmHg 39%
    19:00 +28°C° 0,2 mm 4 m/s 650 mmHg 44%
    20:00 +27°C° 0,2 mm 3 m/s 651 mmHg 46%
    21:00 +26°C° 0,2 mm 2 m/s 651 mmHg 49%
    22:00 +26°C° 0,2 mm 1 m/s 651 mmHg 52%
    23:00 +24°C° 0,3 mm 1 m/s 651 mmHg 55%

    Depois de amanhã, 26 Fevereiro, Segunda-feira

    Tempo Temperatura Precipitação Vento Pressão Humidade
    00:00 +23°C° 0,3 mm 2 m/s 651 mmHg 59%
    01:00 +21°C° 0,3 mm 2 m/s 650 mmHg 62%
    02:00 +21°C° 0,1 mm 2 m/s 650 mmHg 61%
    03:00 +20°C° 0,1 mm 2 m/s 650 mmHg 61%
    04:00 +20°C° 0,1 mm 2 m/s 650 mmHg 60%
    05:00 +21°C° 0,1 mm 2 m/s 651 mmHg 59%
    06:00 +21°C° 0,1 mm 2 m/s 652 mmHg 58%
    07:00 +23°C° 0,1 mm 2 m/s 652 mmHg 57%
    08:00 +25°C° 0,1 mm 2 m/s 653 mmHg 50%
    09:00 +28°C° 0,1 mm 2 m/s 654 mmHg 43%
    10:00 +30°C° 0,1 mm 2 m/s 654 mmHg 36%
    11:00 +31°C° 0 mm 2 m/s 654 mmHg 33%
    12:00 +32°C° 0 mm 2 m/s 653 mmHg 30%
    13:00 +35°C° 0 mm 2 m/s 653 mmHg 26%
    14:00 +34°C° 0 mm 2 m/s 652 mmHg 27%
    15:00 +34°C° 0 mm 2 m/s 652 mmHg 27%
    16:00 +34°C° 0 mm 3 m/s 651 mmHg 28%
    17:00 +32°C° 0 mm 2 m/s 651 mmHg 31%
    18:00 +30°C° 0 mm 2 m/s 651 mmHg 34%
    19:00 +29°C° 0 mm 2 m/s 651 mmHg 37%
    20:00 +28°C° 0,2 mm 3 m/s 652 mmHg 43%
    21:00 +26°C° 0,2 mm 3 m/s 652 mmHg 49%
    22:00 +25°C° 0,2 mm 3 m/s 652 mmHg 55%
    23:00 +24°C° 0,3 mm 3 m/s 652 mmHg 63%

    27 Fevereiro, Terça-feira

    Tempo Temperatura Precipitação Vento Pressão Humidade
    00:00 +22°C° 0,3 mm 3 m/s 652 mmHg 72%
    01:00 +20°C° 0,3 mm 3 m/s 651 mmHg 80%
    02:00 +20°C° 0,1 mm 2 m/s 651 mmHg 82%
    03:00 +19°C° 0,1 mm 2 m/s 651 mmHg 84%
    04:00 +19°C° 0,1 mm 2 m/s 651 mmHg 87%
    05:00 +19°C° 0,1 mm 2 m/s 652 mmHg 84%
    06:00 +20°C° 0,1 mm 2 m/s 652 mmHg 82%
    07:00 +20°C° 0,1 mm 3 m/s 653 mmHg 79%
    08:00 +24°C° 0 mm 3 m/s 654 mmHg 68%
    09:00 +26°C° 0 mm 4 m/s 654 mmHg 58%
    10:00 +28°C° 0 mm 4 m/s 655 mmHg 47%
    11:00 +30°C° 0 mm 5 m/s 654 mmHg 42%
    12:00 +32°C° 0 mm 5 m/s 654 mmHg 38%
    13:00 +33°C° 0 mm 5 m/s 653 mmHg 33%
    14:00 +33°C° 0 mm 5 m/s 653 mmHg 33%
    15:00 +33°C° 0 mm 6 m/s 652 mmHg 33%
    16:00 +33°C° 0 mm 6 m/s 652 mmHg 34%
    17:00 +30°C° 0 mm 6 m/s 652 mmHg 40%
    18:00 +28°C° 0 mm 5 m/s 652 mmHg 47%
    19:00 +26°C° 0 mm 5 m/s 652 mmHg 53%
    20:00 +25°C° 0 mm 5 m/s 652 mmHg 59%
    21:00 +23°C° 0 mm 4 m/s 652 mmHg 64%
    22:00 +22°C° 0 mm 4 m/s 653 mmHg 70%
    23:00 +21°C° 0 mm 4 m/s 652 mmHg 72%

    28 Fevereiro, Quarta-feira

    Tempo Temperatura Precipitação Vento Pressão Humidade
    00:00 +21°C° 0 mm 3 m/s 652 mmHg 75%
    01:00 +20°C° 0 mm 3 m/s 652 mmHg 77%
    02:00 +20°C° 0 mm 3 m/s 652 mmHg 77%
    03:00 +20°C° 0 mm 3 m/s 652 mmHg 78%
    04:00 +20°C° 0 mm 3 m/s 652 mmHg 78%
    05:00 +20°C° 0 mm 3 m/s 652 mmHg 77%
    06:00 +21°C° 0 mm 4 m/s 653 mmHg 76%
    07:00 +21°C° 0 mm 4 m/s 653 mmHg 75%
    08:00 +23°C° 0 mm 4 m/s 653 mmHg 68%
    09:00 +26°C° 0 mm 5 m/s 654 mmHg 60%
    10:00 +28°C° 0 mm 5 m/s 654 mmHg 53%
    11:00 +29°C° 0,3 mm 5 m/s 653 mmHg 49%
    12:00 +29°C° 0,3 mm 4 m/s 653 mmHg 46%
    13:00 +30°C° 0,3 mm 4 m/s 652 mmHg 42%
    14:00 +30°C° 0,4 mm 4 m/s 652 mmHg 42%
    15:00 +30°C° 0,4 mm 5 m/s 651 mmHg 43%
    16:00 +30°C° 0,4 mm 5 m/s 651 mmHg 43%
    17:00 +29°C° 0 mm 5 m/s 651 mmHg 48%
    18:00 +27°C° 0 mm 4 m/s 651 mmHg 54%
    19:00 +26°C° 0 mm 4 m/s 651 mmHg 60%
    20:00 +25°C° 0,2 mm 3 m/s 651 mmHg 65%
    21:00 +24°C° 0,2 mm 3 m/s 651 mmHg 70%
    22:00 +23°C° 0,2 mm 2 m/s 652 mmHg 75%
    23:00 +23°C° 0,5 mm 2 m/s 651 mmHg 77%

    1 Março, Quinta-feira

    Tempo Temperatura Precipitação Vento Pressão Humidade
    00:00 +21°C° 0,5 mm 2 m/s 651 mmHg 80%
    01:00 +21°C° 0,5 mm 2 m/s 651 mmHg 82%
    02:00 +21°C° 0,1 mm 2 m/s 651 mmHg 83%
    03:00 +20°C° 0,1 mm 2 m/s 651 mmHg 84%
    04:00 +20°C° 0,1 mm 2 m/s 650 mmHg 85%
    05:00 +21°C° 0,1 mm 2 m/s 651 mmHg 83%
    06:00 +21°C° 0,1 mm 3 m/s 651 mmHg 82%
    07:00 +21°C° 0,1 mm 3 m/s 652 mmHg 80%
    08:00 +23°C° 0,2 mm 4 m/s 652 mmHg 72%
    09:00 +26°C° 0,2 mm 5 m/s 652 mmHg 63%
    10:00 +27°C° 0,2 mm 6 m/s 653 mmHg 55%
    11:00 +28°C° 0,4 mm 6 m/s 652 mmHg 52%
    12:00 +29°C° 0,4 mm 5 m/s 652 mmHg 48%
    13:00 +30°C° 0,4 mm 5 m/s 652 mmHg 45%
    14:00 +29°C° 0,1 mm 5 m/s 651 mmHg 46%
    15:00 +29°C° 0,1 mm 5 m/s 651 mmHg 46%
    16:00 +28°C° 0,1 mm 5 m/s 650 mmHg 47%
    17:00 +27°C° 0 mm 4 m/s 650 mmHg 49%
    18:00 +27°C° 0 mm 4 m/s 650 mmHg 51%
    19:00 +26°C° 0 mm 3 m/s 650 mmHg 53%
    20:00 +25°C° 0 mm 3 m/s 650 mmHg 57%
    21:00 +24°C° 0 mm 3 m/s 650 mmHg 61%
    22:00 +22°C° 0 mm 3 m/s 650 mmHg 65%
    23:00 +21°C° 0 mm 3 m/s 650 mmHg 66%
    Mostrar mais